Total_Precipitation_Accumulation
0.00 0.00 0.00 0.00 0.00 0.00 0.00 0.00 0.01 0.00 0.00 0.00 0.00 0.00 0.00 0.00 0.00 0.00 0.00 0.00 0.00 0.00 0.00 0.00 0.00 0.00 0.00 0.00 0.00 0.00 0.01 0.03 0.05 0.06 0.07 0.11 0.14 0.14 0.13 0.09 0.08 0.09 0.20 0.28
0.00 0.00 0.00 0.00 0.00 0.00 0.00 0.00 0.00 0.00 0.00 0.00 0.00 0.00 0.00 0.00 0.00 0.00 0.00 0.00 0.00 0.00 0.00 0.00 0.00 0.00 0.00 0.00 0.00 0.01 0.03 0.05 0.08 0.09 0.07 0.09 0.12 0.15 0.09 0.05 0.06 0.12 0.10 0.11
0.01 0.00 0.00 0.00 0.00 0.00 0.00 0.00 0.00 0.00 0.00 0.00 0.00 0.00 0.00 0.00 0.00 0.00 0.00 0.00 0.00 0.00 0.00 0.00 0.00 0.00 0.00 0.00 0.00 0.01 0.02 0.05 0.09 0.10 0.11 0.12 0.14 0.12 0.10 0.11 0.11 0.10 0.07 0.05
0.01 0.00 0.01 0.00 0.00 0.00 0.00 0.00 0.00 0.00 0.00 0.00 0.00 0.00 0.00 0.00 0.00 0.00 0.00 0.00 0.00 0.00 0.00 0.00 0.00 0.00 0.00 0.00 0.00 0.02 0.03 0.06 0.10 0.14 0.20 0.15 0.11 0.11 0.11 0.14 0.11 0.07 0.05 0.08
0.01 0.01 0.00 0.00 0.00 0.00 0.00 0.00 0.00 0.00 0.00 0.00 0.00 0.00 0.00 0.00 0.00 0.00 0.00 0.00 0.00 0.00 0.00 0.00 0.00 0.00 0.00 0.00 0.00 0.02 0.03 0.04 0.10 0.15 0.17 0.16 0.14 0.11 0.09 0.06 0.04 0.03 0.05 0.08
0.03 0.07 0.01 0.00 0.00 0.00 0.00 0.00 0.00 0.00 0.00 0.00 0.00 0.00 0.00 0.00 0.00 0.00 0.00 0.00 0.00 0.00 0.00 0.00 0.00 0.00 0.00 0.00 0.00 0.00 0.00 0.02 0.07 0.11 0.12 0.14 0.12 0.10 0.07 0.05 0.03 0.03 0.04 0.05
0.01 0.06 0.01 0.00 0.00 0.00 0.00 0.00 0.00 0.00 0.00 0.00 0.00 0.00 0.00 0.00 0.00 0.00 0.00 0.00 0.00 0.00 0.00 0.00 0.00 0.00 0.00 0.00 0.00 0.00 0.00 0.00 0.05 0.13 0.15 0.11 0.11 0.09 0.07 0.05 0.04 0.04 0.04 0.06
0.02 0.05 0.02 0.00 0.00 0.00 0.00 0.00 0.00 0.00 0.00 0.00 0.00 0.00 0.00 0.00 0.00 0.00 0.00 0.00 0.00 0.00 0.00 0.00 0.00 0.00 0.00 0.00 0.00 0.00 0.00 0.01 0.02 0.03 0.05 0.07 0.09 0.08 0.06 0.06 0.05 0.03 0.04 0.08
0.01 0.00 0.00 0.00 0.00 0.00 0.00 0.00 0.00 0.00 0.00 0.00 0.00 0.00 0.00 0.00 0.00 0.00 0.00 0.00 0.00 0.00 0.00 0.00 0.00 0.00 0.00 0.00 0.00 0.00 0.00 0.00 0.01 0.02 0.02 0.03 0.04 0.04 0.03 0.05 0.05 0.05 0.10 0.18
0.00 0.00 0.00 0.00 0.00 0.00 0.00 0.00 0.00 0.00 0.00 0.00 0.00 0.00 0.00 0.00 0.00 0.00 0.00 0.00 0.00 0.00 0.00 0.00 0.00 0.00 0.00 0.00 0.00 0.00 0.00 0.00 0.00 0.01 0.01 0.01 0.01 0.02 0.03 0.05 0.08 0.16 0.26 0.31
0.00 0.00 0.00 0.00 0.00 0.00 0.00 0.00 0.00 0.00 0.00 0.00 0.00 0.00 0.00 0.00 0.00 0.00 0.00 0.00 0.00 0.01 0.02 0.03 0.02 0.00 0.00 0.00 0.00 0.00 0.00 0.01 0.01 0.01 0.01 0.01 0.02 0.05 0.08 0.13 0.22 0.29 0.36 0.35
0.01 0.00 0.00 0.00 0.00 0.00 0.00 0.00 0.00 0.00 0.00 0.00 0.00 0.00 0.00 0.00 0.00 0.00 0.00 0.00 0.00 0.01 0.04 0.06 0.12 0.09 0.03 0.02 0.02 0.01 0.01 0.03 0.06 0.02 0.02 0.03 0.07 0.23 0.39 0.42 0.51 0.47 0.46 0.44
0.01 0.00 0.00 0.00 0.00 0.00 0.00 0.00 0.00 0.00 0.00 0.00 0.00 0.00 0.00 0.00 0.00 0.00 0.00 0.00 0.00 0.00 0.01 0.05 0.09 0.13 0.17 0.16 0.16 0.16 0.15 0.14 0.17 0.22 0.24 0.34 0.47 0.54 0.62 0.70 0.65 0.56 0.52 0.41
0.00 0.00 0.00 0.00 0.00 0.00 0.00 0.00 0.00 0.00 0.00 0.00 0.00 0.00 0.00 0.00 0.00 0.00 0.00 0.00 0.00 0.00 0.00 0.01 0.04 0.06 0.06 0.06 0.09 0.13 0.19 0.29 0.21 0.16 0.26 0.45 0.58 0.66 0.62 0.56 0.55 0.51 0.41 0.31
0.00 0.00 0.00 0.00 0.00 0.00 0.00 0.00 0.00 0.00 0.00 0.00 0.00 0.00 0.00 0.00 0.00 0.00 0.00 0.00 0.00 0.00 0.00 0.01 0.04 0.07 0.07 0.06 0.08 0.10 0.15 0.22 0.24 0.28 0.31 0.35 0.32 0.31 0.28 0.23 0.21 0.18 0.19 0.18
0.00 0.00 0.00 0.00 0.00 0.00 0.00 0.00 0.00 0.00 0.00 0.00 0.00 0.00 0.00 0.00 0.00 0.00 0.00 0.00 0.00 0.01 0.05 0.10 0.14 0.11 0.06 0.04 0.05 0.09 0.14 0.21 0.26 0.29 0.29 0.28 0.24 0.22 0.22 0.21 0.19 0.14 0.10 0.09
0.00 0.00 0.00 0.00 0.00 0.00 0.00 0.00 0.00 0.00 0.00 0.00 0.00 0.00 0.00 0.00 0.01 0.02 0.05 0.10 0.14 0.17 0.17 0.16 0.13 0.09 0.06 0.08 0.12 0.17 0.21 0.25 0.28 0.28 0.28 0.25 0.22 0.21 0.19 0.16 0.14 0.11 0.08 0.04
0.00 0.00 0.00 0.00 0.00 0.01 0.00 0.00 0.01 0.01 0.02 0.02 0.03 0.06 0.09 0.15 0.25 0.30 0.28 0.23 0.19 0.20 0.22 0.20 0.17 0.17 0.18 0.20 0.21 0.23 0.24 0.28 0.30 0.29 0.28 0.25 0.23 0.19 0.16 0.13 0.10 0.07 0.05 0.03
0.00 0.00 0.00 0.01 0.01 0.02 0.05 0.08 0.13 0.18 0.19 0.19 0.23 0.37 0.50 0.58 0.48 0.35 0.27 0.27 0.28 0.24 0.35 0.31 0.29 0.25 0.22 0.24 0.21 0.17 0.17 0.18 0.19 0.20 0.18 0.16 0.15 0.13 0.11 0.08 0.06 0.04 0.03 0.02
0.00 0.00 0.01 0.04 0.08 0.12 0.17 0.27 0.26 0.19 0.24 0.29 0.36 0.37 0.37 0.42 0.35 0.34 0.27 0.32 0.37 0.35 0.36 0.32 0.24 0.22 0.22 0.21 0.18 0.14 0.13 0.11 0.09 0.09 0.07 0.06 0.05 0.05 0.04 0.02 0.01 0.01 0.00 0.00
0.02 0.02 0.04 0.09 0.13 0.13 0.19 0.25 0.18 0.21 0.29 0.29 0.23 0.26 0.32 0.38 0.32 0.27 0.18 0.26 0.45 0.32 0.24 0.15 0.07 0.05 0.03 0.02 0.01 0.02 0.02 0.03 0.03 0.03 0.03 0.02 0.01 0.00 0.00 0.00 0.00 0.00 0.00 0.00
0.05 0.05 0.09 0.12 0.10 0.16 0.23 0.20 0.20 0.24 0.26 0.30 0.32 0.25 0.23 0.35 0.27 0.20 0.20 0.26 0.29 0.10 0.04 0.03 0.02 0.00 0.00 0.00 0.00 0.00 0.00 0.00 0.00 0.00 0.00 0.00 0.00 0.00 0.00 0.00 0.00 0.00 0.00 0.00
0.04 0.08 0.11 0.15 0.16 0.17 0.12 0.11 0.14 0.13 0.16 0.17 0.20 0.17 0.13 0.15 0.14 0.07 0.07 0.06 0.02 0.01 0.01 0.01 0.00 0.00 0.00 0.00 0.00 0.00 0.00 0.00 0.00 0.00 0.00 0.00 0.00 0.00 0.00 0.00 0.00 0.00 0.00 0.00
0.06 0.09 0.14 0.15 0.06 0.01 0.04 0.04 0.02 0.02 0.03 0.03 0.03 0.03 0.02 0.02 0.03 0.02 0.01 0.00 0.00 0.00 0.00 0.00 0.00 0.00 0.00 0.00 0.00 0.00 0.00 0.00 0.00 0.00 0.00 0.00 0.00 0.00 0.00 0.00 0.00 0.00 0.00 0.00
0.05 0.08 0.08 0.03 0.00 0.01 0.01 0.00 0.00 0.00 0.00 0.00 0.01 0.00 0.00 0.00 0.01 0.00 0.00 0.00 0.00 0.00 0.00 0.00 0.00 0.00 0.00 0.00 0.00 0.00 0.00 0.00 0.00 0.00 0.00 0.00 0.00 0.00 0.00 0.00 0.00 0.00 0.00 0.00
0.03 0.01 0.00 0.00 0.00 0.00 0.00 0.00 0.01 0.01 0.00 0.01 0.01 0.01 0.01 0.00 0.00 0.00 0.00 0.00 0.00 0.00 0.00 0.00 0.00 0.00 0.00 0.00 0.00 0.00 0.00 0.00 0.00 0.00 0.00 0.00 0.00 0.00 0.00 0.00 0.00 0.00 0.00 0.00
0.00 0.00 0.00 0.00 0.00 0.00 0.00 0.00 0.00 0.01 0.00 0.00 0.01 0.01 0.00 0.00 0.00 0.00 0.00 0.00 0.00 0.00 0.00 0.00 0.00 0.00 0.00 0.00 0.00 0.00 0.00 0.00 0.00 0.00 0.00 0.00 0.00 0.00 0.00 0.00 0.00 0.00 0.00 0.00